This is the latest recevied weather packets stored in our database for station/object K5UBE. If no packets are shown the sender has not sent any weather packets the latest 10 day(s).
| Time | Temp. | Humidity | Pressure | Rain* | Wind** | Luminosity | Snow |
|---|---|---|---|---|---|---|---|
| 1777925274 | 29.44° C | 20% | 1010.9 hPa | 0 mm | - | - | - |
| 1777924969 | 28.89° C | 20% | 1011.2 hPa | 0 mm | - | - | - |
| 1777924666 | 28.89° C | 21% | 1011.3 hPa | 0 mm | - | - | - |
| 1777924361 | 29.44° C | 20% | 1011.2 hPa | 0 mm | - | - | - |
| 1777924059 | 29.44° C | 19% | 1011.4 hPa | 0 mm | - | - | - |
| 1777923755 | 29.44° C | 19% | 1011.2 hPa | 0 mm | - | - | - |
| 1777923451 | 28.33° C | 21% | 1011.4 hPa | 0 mm | - | - | - |
| 1777923149 | 28.33° C | 24% | 1011.5 hPa | 0 mm | - | - | - |
| 1777922847 | 28.33° C | 22% | 1011.5 hPa | 0 mm | - | - | - |
| 1777922545 | 28.33° C | 23% | 1011.9 hPa | 0 mm | - | - | - |
| 1777922244 | 27.78° C | 25% | 1011.9 hPa | 0 mm | - | - | - |
| 1777921940 | 28.33° C | 25% | 1011.8 hPa | 0 mm | - | - | - |
| 1777921635 | 27.78° C | 25% | 1011.9 hPa | 0 mm | - | - | - |
| 1777921332 | 28.33° C | 23% | 1012 hPa | 0 mm | - | - | - |
| 1777921029 | 28.33° C | 22% | 1012.1 hPa | 0 mm | - | - | - |
| 1777920725 | 28.33° C | 23% | 1012 hPa | 0 mm | - | - | - |
| 1777920421 | 27.78° C | 23% | 1012 hPa | 0 mm | - | - | - |
| 1777920116 | 27.22° C | 23% | 1012.1 hPa | 0 mm | - | - | - |
| 1777919813 | 28.33° C | 23% | 1012 hPa | 0 mm | - | - | - |
| 1777919510 | 28.33° C | 23% | 1012.2 hPa | 0 mm | - | - | - |
| 1777919208 | 28.33° C | 24% | 1012.4 hPa | 0 mm | - | - | - |
| 1777918905 | 28.33° C | 24% | 1012.4 hPa | 0 mm | - | - | - |
| 1777918603 | 28.33° C | 25% | 1012.6 hPa | 0 mm | - | - | - |
| 1777918300 | 27.78° C | 26% | 1012.6 hPa | 0 mm | - | - | - |
| 1777918000 | 27.22° C | 27% | 1012.8 hPa | 0 mm | - | - | - |
* Rain latest hour (hover to see other rain measurements)
** Current wind speed in m/s (hover to see current wind gust speed)